"Pseudo-MPEC" for A10vq8q
Created 2021 Mar 1 2:07:03 UT using Find_Orb
Click here for an explanation of pseudo-MPECs
Astrometry: A10vq8q C2021 02 22.27781 09 37 57.68 -21 29 06.3 ~2Q1M 19.0 GVNEOCP703 A10vq8q C2021 02 22.29367 09 38 01.84 -21 25 27.9 ~2Q1M 18.8 GVNEOCP703 A10vq8q C2021 02 22.45151909 38 47.26 -20 48 45.0 ~2MDq 18.77oVNEOCPT08 A10vq8q C2021 02 22.48597409 38 55.54 -20 40 56.8 ~2MDq 18.92oVNEOCPT08 A10vq8q C2021 02 22.49012209 38 56.61 -20 39 58.7 ~2MDq 18.91oVNEOCPT08 A10vq8q C2021 02 22.49524309 38 57.85 -20 38 48.7 ~2MDq 18.97oVNEOCPT08 A10vq8q C2021 02 22.53574 09 39 07.74 -20 29 37.9 ~2Q17 19.0 oVNEOCPT08 A10vq8q C2021 02 26.20977 09 51 31.12 -10 38 10.9 ~2R8M 19.1 GVNEOCPI52 A10vq8q C2021 02 26.21315 09 51 31.52 -10 37 46.9 ~2R8M 20.8 GVNEOCPI52 A10vq8q |C2021 02 27HKr36TaGTyG^o
Astrometry^s%edxW8YB83-Y
redacted;$fR7%9
807 A10vq8q |C2021 02 27'YU)3.PK$0cw5O;g,TG(l4i9/Xs7g'pB0^P:/TJs+`HGM.UNj!=3
807 A10vq8q |C2021 02 27'0B:)vQp#Hl4,w(o+Sh7mj8tRm#vn@/PPQj3Mu^+wPs]'!S3.uJ!
807 A10vq8q |C2021 02 27fPr/SoWs$-#0Qj7MNBJYo.`q;sY6w[Vm1)Vx47Vun@'^XT3TXFJ@
807 A10vq8q |C2021 02 27,u5ZTL1i\%Te[r=IctyWnpL4][l)_gi4#B(52?n@*)9SVPRhDX^K
807 A10vq8q |C2021 02 27lA,8$EYGY\K!:g]..B7!DDWtPy.]CTXOG6t^-bcc[#Pe8`V9*!KX
807 A10vq8q BC2021 02 27.97228709 55 02.64 -07 39 39.4 ~2SMb VNEOCPJ95 A10vq8q BC2021 02 28.01538209 55 06.23 -07 35 49.8 ~2SMb VNEOCPJ95 A10vq8q KC2021 02 28QJQ:btHtJI1xPI`l2IMiylTl,0
click+ke0Iq5ewu3Ky7\Qg_7Yq
203 A10vq8q pC2021 02 28:a`n-n`9%E*DVT;k.ZB]Hm\_*hLi%_;@U4-JN!)s+'O9CtWp_%dv
L01 A10vq8q KC2021 02 28.90142009 56 37.25 -06 22 03.2 ~310M 20.2 GVNEOCPJ95 A10vq8q pC2021 02 28dHd67iP,cPbQ^f%_ISDP(8MW:+My0kuu99e+];7FlSR*s1iBdgMG
L01 A10vq8q pC2021 02 28%$?_+spQHEDb0OEAErNwHcEjMf=tlrReW88'ia3#7=q8GifyE4bD
L01 A10vq8q IC2021 02 28Y50PdVv4T4;wuveRg\T^tM`ULOqJ.,48Jk;ggOu!DMQ@8)-
hereN
L01 A10vq8q pC2021 02 288kHnrbIx7@Hy]8Q(-rI\GJZNU!@9bnQ.yZ%HYpB[pHbSo%IQ'NeU
L01 A10vq8q pC2021 02 28)@vv)D'kaK@N*jJf`M^H_q`.Hg6hv@.rpkqx\2$.R-lBWX]*=_eV
L01 A10vq8q KC2021 02 28WKYlUGhO0;E!2w^DFPc8Ltqc%hIDxZI9oq;]KRLwdS0lIskt\Jb_
203 A10vq8q KC2021 02 28.94338109 56 40.37 -06 18 46.7 ~310M 20.3 GVNEOCPJ95 A10vq8q KC2021 02 28n`?qVYf(tI(yV(Kt673]*IVuCmE_R9yrdV+P^Yy@X/
forI)*)sut
Z99 A10vq8q KC2021 02 28XFwiuA\@Z43Z`wjkM(J'H(6Kft._oK3(K
explanation1qG,-Afu
Z99 A10vq8q KC2021 02 28U\,DMZLR;O4QTc:OhMW9^(:D5611keGQ0N16L?oXto8]cgK7yO'3
Z99 A10vq8q KC2021 02 28.97721309 56 42.83 -06 16 08.7 ~310M 20.5 GVNEOCPJ95 Station data: (203) GiaGa Observatory (N45.541408 E8.995500) Italy. 0.13-m f/6.4 refractor. (703) Catalina Sky Survey (N32.417006 W110.732640) US/Arizona. Observers T. A. Pruyne, B. M. Africano, E. J. Christensen, G. A. Farneth, D. C. Fuls, A. R. Gibbs, A. D. Grauer, H. Gröller, J. A. Johnson, R. A. Kowalski, S. M. Larson, G. J. Leonard, D. Rankin, R. L. Seaman, F. C. Shelly. 0.68 m Schmidt + 10K CCD. (807) Cerro Tololo Observatory, La Serena (S30.169136 W70.805900) Chile. (I52) Steward Observatory, Mt. Lemmon Station (N32.442547 W110.788920) US/Arizona. Observers T. A. Pruyne, B. M. Africano, E. J. Christensen, G. A. Farneth, D. C. Fuls, A. R. Gibbs, A. D. Grauer, H. Gröller, J. A. Johnson, R. A. Kowalski, S. M. Larson, G. J. Leonard, D. Rankin, R. L. Seaman, F. C. Shelly. 1.0-m reflector + CCD. (J95) Great Shefford (N51.474969 W1.447003) UK. Observer P. Birtwhistle. 0.40-m f/6.0 Schmidt-Cassegrain + CCD. (L01) Višnjan Observatory, Tičan (N45.290900 E13.749300) Croatia. Observers K. Korlević, E. Pettarin. Measurer E. Pettarin. 1.0-m f/2.9 reflector + CCD. (T08) ATLAS-MLO, Mauna Loa (N19.536152 W155.576050) US/Hawaii. Observers L. Denneau, A. Heinze, H. Weiland, J. Tonry, H. Flewelling, A. Fitzsimmons, D. Young, B. Stalder. Measurers L. Denneau, A. Heinze, J. Tonry. 0.5-m f/2.0 Schmidt + CCD. (Z99) Clixby Observatory, Cleethorpes (N53.546062 W0.021260) UK. Orbital elements: A10vq8q Perihelion 2020 Dec 26.381629 +/- 0.0650188 TT = 9:09:32 (JD 2459209.881629) Epoch 2021 Feb 28.0 TT = JDT 2459273.5 Earth MOID: 0.0272 Ve: 0.0082 M 37.96075957 +/- 0.1834290 Ma: 0.0348 AutoNEOCP n 0.59669493 +/- 0.0022765 Peri. 215.48183 +/- 0.0677131 a 1.39733697 +/- 0.00355399 Node 212.37001 +/- 0.0723243 e 0.4788621 +/- 0.00182189 Incl. 2.15093 +/- 0.0093273 P 1.65/603.31d H 24.0 G 0.15 U 8.7 q 0.72820512 +/- 0.000695099 Q 2.06646881 +/- 0.00781747 From 31 observations 2021 Feb. 22-28; mean residual 0".69
Residuals in arcseconds: 210222 703 .26- 1.6+ 210227 807 .31+ .40- 210228 L01 .32+ .10+ 210222 703 1.7+ 2.6- 210227 807 .26+ .33- 210228 L01 .89+ .25- 210222 T08 1.4- .15+ 210227 807 .34+ .34- 210228 L01 .57+ .41+ 210222 T08 .77- 1.3- 210227 807 .41+ .25- 210228 203 .24- .31- 210222 T08 .23+ .35+ 210227 J95 .39- .49+ 210228 J95 .14+ .36- 210222 T08 .29+ .68+ 210228 J95 .40- .51+ 210228 Z99 .56+ .55+ 210222 T08 .02- 1.7+ 210228 203 .19- .04+ 210228 Z99 .39- .36+ 210226 I52 .61- .92- 210228 L01 .78+ .16+ 210228 Z99 .45- .27+ 210226 I52 .01+ .21- 210228 J95 .16- .57- 210228 J95 .31+ .11- 210227 807 .09+ .63+ 210228 L01 .92+ .47+ 210227 807 .11- .38- 210228 L01 .87+ .56+ Ephemerides (geocentric): Date (UTC) HH RA Dec delta r elong mag " sig PA ---- -- -- -- ------------- ----------- ------ ------ ----- --- ---- --- 2021 03 01 02 09 56 52.660 -06 06 49.78 .10869 1.0943 161.3 20.3 .275 178 2021 03 01 03 09 56 56.498 -06 03 39.21 .10900 1.0946 161.3 20.3 .278 179 2021 03 01 04 09 57 00.316 -06 00 29.68 .10932 1.0949 161.4 20.3 .282 179 2021 03 01 05 09 57 04.115 -05 57 21.17 .10963 1.0953 161.4 20.3 .285 0 2021 03 01 06 09 57 07.896 -05 54 13.69 .10995 1.0956 161.4 20.3 .289 0 2021 03 01 07 09 57 11.657 -05 51 07.21 .11027 1.0959 161.5 20.3 .292 0 2021 03 01 08 09 57 15.399 -05 48 01.75 .11058 1.0963 161.5 20.3 .296 1 2021 03 01 09 09 57 19.124 -05 44 57.28 .11090 1.0966 161.5 20.3 .300 1 2021 03 01 10 09 57 22.830 -05 41 53.79 .11121 1.0969 161.5 20.3 .303 1 2021 03 01 11 09 57 26.517 -05 38 51.29 .11153 1.0972 161.6 20.3 .307 2 2021 03 01 12 09 57 30.187 -05 35 49.77 .11185 1.0976 161.6 20.3 .311 2 2021 03 01 13 09 57 33.839 -05 32 49.21 .11216 1.0979 161.6 20.3 .315 2 2021 03 01 14 09 57 37.473 -05 29 49.60 .11248 1.0982 161.7 20.3 .319 3 2021 03 01 15 09 57 41.090 -05 26 50.95 .11280 1.0986 161.7 20.3 .322 3 2021 03 01 16 09 57 44.690 -05 23 53.25 .11311 1.0989 161.7 20.3 .326 3 2021 03 01 17 09 57 48.272 -05 20 56.48 .11343 1.0992 161.8 20.3 .330 4 2021 03 01 18 09 57 51.837 -05 18 00.64 .11375 1.0996 161.8 20.3 .334 4 2021 03 01 19 09 57 55.386 -05 15 05.72 .11406 1.0999 161.8 20.3 .338 4 2021 03 01 20 09 57 58.917 -05 12 11.72 .11438 1.1002 161.8 20.4 .342 4 2021 03 01 21 09 58 02.432 -05 09 18.63 .11470 1.1005 161.9 20.4 .346 5 2021 03 01 22 09 58 05.931 -05 06 26.44 .11502 1.1009 161.9 20.4 .350 5 2021 03 01 23 09 58 09.414 -05 03 35.14 .11534 1.1012 161.9 20.4 .354 5 2021 03 02 00 09 58 12.880 -05 00 44.74 .11566 1.1015 161.9 20.4 .358 5 2021 03 02 01 09 58 16.330 -04 57 55.21 .11597 1.1019 162.0 20.4 .362 6 2021 03 02 02 09 58 19.765 -04 55 06.56 .11629 1.1022 162.0 20.4 .367 6 2021 03 02 03 09 58 23.183 -04 52 18.78 .11661 1.1025 162.0 20.4 .371 6 2021 03 02 04 09 58 26.587 -04 49 31.86 .11693 1.1029 162.0 20.4 .375 7 2021 03 02 05 09 58 29.974 -04 46 45.80 .11725 1.1032 162.1 20.4 .379 7 2021 03 02 06 09 58 33.347 -04 44 00.58 .11757 1.1035 162.1 20.4 .384 7 2021 03 02 07 09 58 36.704 -04 41 16.21 .11789 1.1039 162.1 20.4 .388 7 2021 03 02 08 09 58 40.047 -04 38 32.67 .11821 1.1042 162.1 20.4 .392 7 2021 03 02 09 09 58 43.374 -04 35 49.97 .11853 1.1045 162.1 20.4 .397 8 2021 03 02 10 09 58 46.687 -04 33 08.09 .11885 1.1048 162.2 20.4 .401 8 2021 03 02 11 09 58 49.985 -04 30 27.02 .11917 1.1052 162.2 20.4 .405 8 2021 03 02 12 09 58 53.269 -04 27 46.78 .11949 1.1055 162.2 20.4 .410 8 2021 03 02 13 09 58 56.538 -04 25 07.33 .11981 1.1058 162.2 20.5 .414 9 2021 03 02 14 09 58 59.793 -04 22 28.69 .12013 1.1062 162.3 20.5 .419 9 2021 03 02 15 09 59 03.034 -04 19 50.84 .12045 1.1065 162.3 20.5 .423 9 2021 03 02 16 09 59 06.261 -04 17 13.78 .12077 1.1068 162.3 20.5 .428 9 2021 03 02 17 09 59 09.474 -04 14 37.51 .12110 1.1072 162.3 20.5 .432 9 2021 03 02 18 09 59 12.673 -04 12 02.01 .12142 1.1075 162.3 20.5 .437 10 2021 03 02 19 09 59 15.859 -04 09 27.28 .12174 1.1078 162.3 20.5 .441 10 2021 03 02 20 09 59 19.031 -04 06 53.32 .12206 1.1081 162.4 20.5 .446 10 2021 03 02 21 09 59 22.190 -04 04 20.13 .12238 1.1085 162.4 20.5 .451 10 2021 03 02 22 09 59 25.336 -04 01 47.68 .12270 1.1088 162.4 20.5 .455 10 2021 03 02 23 09 59 28.468 -03 59 15.99 .12303 1.1091 162.4 20.5 .460 11 2021 03 03 00 09 59 31.587 -03 56 45.04 .12335 1.1095 162.4 20.5 .465 11 2021 03 03 01 09 59 34.694 -03 54 14.83 .12367 1.1098 162.4 20.5 .469 11